Location: Big Prairie
(40.6673°N, 82.0952°W)
Time: 14:50:21
(UTC+00:00)

Meteor 1-26 Rocket - Pass Details

Date: 28 June 2022
Orbit: 811 x 924 km, 81.3° (Epoch: 18 August)

Event Time Altitude Azimuth Distance (km) Brightness Sun altitude
Rises 06:26:39 0° 359° (N) 3,454 8.6 -24.8°
Reaches altitude 10° 06:29:20 10° 10° (N) 2,531 7.7 -24.7°
Maximum altitude 06:34:29 33° 73° (ENE) 1,468 5.7 -24.4°
Enters shadow 06:38:13 17° 126° (SE) 2,115 6.1 -24.2°
